owner,sensor,date,latitude,longitude,vertical_datum,direction_of_sea_water_velocity,sea_water_speed,upward_sea_water_velocity,qcFlag 
TABS,ioos:station:wmo:42050:1,2005-06-01T00:00:00Z,28.8425,-94.2433,2.0,320.1899446,15.32217348,-99999.0,'11111222,11111222,99999999' 
TABS,ioos:station:wmo:42050:1,2005-06-01T00:30:00Z,28.8425,-94.2433,2.0,319.8993967,21.85874653,-99999.0,'11111222,11111222,99999999' 
TABS,ioos:station:wmo:42050:1,2005-06-01T01:00:00Z,28.8425,-94.2433,2.0,359.3755163,6.420381609,-99999.0,'11133222,11144222,99999999' 
TABS,ioos:station:wmo:42050:1,2005-06-01T01:30:00Z,28.8425,-94.2433,2.0,337.4322438,6.800772015,-99999.0,'11133222,11111222,99999999' 
TABS,ioos:station:wmo:42050:1,2005-06-01T02:00:00Z,28.8425,-94.2433,2.0,1.57770536,22.15839796,-99999.0,'11111222,11111222,99999999' 
TABS,ioos:station:wmo:42050:1,2005-06-01T02:30:00Z,28.8425,-94.2433,2.0,352.8437162,20.30821016,-99999.0,'11111222,11111222,99999999' 
TABS,ioos:station:wmo:42050:1,2005-06-01T03:00:00Z,28.8425,-94.2433,2.0,355.6966381,20.78861467,-99999.0,'11111222,11111222,99999999' 
TABS,ioos:station:wmo:42050:1,2005-06-01T03:30:00Z,28.8425,-94.2433,2.0,357.4541564,20.26,-99999.0,'11111222,11111222,99999999' 
TABS,ioos:station:wmo:42050:1,2005-06-01T04:00:00Z,28.8425,-94.2433,2.0,359.7765097,20.49015617,-99999.0,'11111222,11144222,99999999' 
TABS,ioos:station:wmo:42050:1,2005-06-01T04:30:00Z,28.8425,-94.2433,2.0,359.2753407,20.5516447,-99999.0,'11111222,11144222,99999999' 
TABS,ioos:station:wmo:42050:1,2005-06-01T05:00:00Z,28.8425,-94.2433,2.0,8.028162634,19.83437672,-99999.0,'11111222,11111222,99999999' 
TABS,ioos:station:wmo:42050:1,2005-06-01T05:30:00Z,28.8425,-94.2433,2.0,10.9770647,22.26740218,-99999.0,'11111222,11111222,99999999' 
TABS,ioos:station:wmo:42050:1,2005-06-01T06:00:00Z,28.8425,-94.2433,2.0,21.24902729,18.10056629,-99999.0,'11111222,11111222,99999999' 
TABS,ioos:station:wmo:42050:1,2005-06-01T06:30:00Z,28.8425,-94.2433,2.0,27.17382182,18.52463225,-99999.0,'11111222,11111222,99999999' 
TABS,ioos:station:wmo:42050:1,2005-06-01T07:00:00Z,28.8425,-94.2433,2.0,21.98311709,18.75346635,-99999.0,'11111222,11111222,99999999' 
TABS,ioos:station:wmo:42050:1,2005-06-01T07:30:00Z,28.8425,-94.2433,2.0,26.01505247,16.30168703,-99999.0,'11111222,11111222,99999999' 
TABS,ioos:station:wmo:42050:1,2005-06-01T08:00:00Z,28.8425,-94.2433,2.0,32.32821981,17.50296261,-99999.0,'11111222,11111222,99999999' 
TABS,ioos:station:wmo:42050:1,2005-06-01T09:00:00Z,28.8425,-94.2433,2.0,28.20584665,17.96298973,-99999.0,'11111222,11111222,99999999' 
TABS,ioos:station:wmo:42050:1,2005-06-01T09:30:00Z,28.8425,-94.2433,2.0,26.24881111,17.81726129,-99999.0,'11111222,11111222,99999999' 
TABS,ioos:station:wmo:42050:1,2005-06-01T10:00:00Z,28.8425,-94.2433,2.0,34.00791672,19.50633231,-99999.0,'11111222,11111222,99999999' 
TABS,ioos:station:wmo:42050:1,2005-06-01T10:30:00Z,28.8425,-94.2433,2.0,31.30525999,19.86160366,-99999.0,'11111222,11111222,99999999' 
TABS,ioos:station:wmo:42050:1,2005-06-01T11:30:00Z,28.8425,-94.2433,2.0,39.28264102,23.42276243,-99999.0,'11111222,11111222,99999999' 
TABS,ioos:station:wmo:42050:1,2005-06-01T12:00:00Z,28.8425,-94.2433,2.0,47.62336999,21.32039868,-99999.0,'11111222,11111222,99999999' 
TABS,ioos:station:wmo:42050:1,2005-06-01T12:30:00Z,28.8425,-94.2433,2.0,46.97115385,21.58660001,-99999.0,'11111222,11111222,99999999' 
TABS,ioos:station:wmo:42050:1,2005-06-01T13:00:00Z,28.8425,-94.2433,2.0,50.32102428,22.03648112,-99999.0,'11111222,11111222,99999999' 
TABS,ioos:station:wmo:42050:1,2005-06-01T13:30:00Z,28.8425,-94.2433,2.0,56.92751305,23.67597939,-99999.0,'11111222,11111222,99999999' 
TABS,ioos:station:wmo:42050:1,2005-06-01T14:00:00Z,28.8425,-94.2433,2.0,55.28698346,20.19430613,-99999.0,'11111222,11111222,99999999' 
TABS,ioos:station:wmo:42050:1,2005-06-01T14:30:00Z,28.8425,-94.2433,2.0,64.20025789,22.76967501,-99999.0,'11111222,11111222,99999999' 
TABS,ioos:station:wmo:42050:1,2005-06-01T15:00:00Z,28.8425,-94.2433,2.0,65.49739785,22.6168256,-99999.0,'11111222,11111222,99999999' 
TABS,ioos:station:wmo:42050:1,2005-06-01T15:30:00Z,28.8425,-94.2433,2.0,79.59057416,13.22770577,-99999.0,'11111222,11111222,99999999' 
TABS,ioos:station:wmo:42050:1,2005-06-01T16:00:00Z,28.8425,-94.2433,2.0,78.32393103,11.66130353,-99999.0,'11111222,11111222,99999999' 
TABS,ioos:station:wmo:42050:1,2005-06-01T16:30:00Z,28.8425,-94.2433,2.0,74.0611316,12.12619066,-99999.0,'11111222,11111222,99999999' 
TABS,ioos:station:wmo:42050:1,2005-06-01T17:00:00Z,28.8425,-94.2433,2.0,84.56145603,15.29886924,-99999.0,'11111222,11111222,99999999' 
TABS,ioos:station:wmo:42050:1,2005-06-01T17:30:00Z,28.8425,-94.2433,2.0,88.46070772,22.70819456,-99999.0,'11111222,11111222,99999999' 
TABS,ioos:station:wmo:42050:1,2005-06-01T18:00:00Z,28.8425,-94.2433,2.0,94.77488264,21.14337958,-99999.0,'11111222,11111222,99999999' 
TABS,ioos:station:wmo:42050:1,2005-06-01T18:30:00Z,28.8425,-94.2433,2.0,97.79735976,30.44146021,-99999.0,'11111222,11111222,99999999' 
TABS,ioos:station:wmo:42050:1,2005-06-01T19:30:00Z,28.8425,-94.2433,2.0,123.8274331,25.43585068,-99999.0,'11111222,11111222,99999999' 
TABS,ioos:station:wmo:42050:1,2005-06-01T20:00:00Z,28.8425,-94.2433,2.0,129.8822916,20.0557149,-99999.0,'11111222,11111222,99999999' 
TABS,ioos:station:wmo:42050:1,2005-06-01T20:30:00Z,28.8425,-94.2433,2.0,138.0200895,28.72014276,-99999.0,'11111222,11111222,99999999' 
TABS,ioos:station:wmo:42050:1,2005-06-01T21:00:00Z,28.8425,-94.2433,2.0,161.7485434,28.60927297,-99999.0,'11111222,11111222,99999999' 
TABS,ioos:station:wmo:42050:1,2005-06-01T21:30:00Z,28.8425,-94.2433,2.0,164.3226246,20.83507859,-99999.0,'11111222,11111222,99999999' 
TABS,ioos:station:wmo:42050:1,2005-06-01T22:00:00Z,28.8425,-94.2433,2.0,195.0550823,11.31850255,-99999.0,'11111222,11111222,99999999' 
TABS,ioos:station:wmo:42050:1,2005-06-01T22:30:00Z,28.8425,-94.2433,2.0,196.8635347,12.34068475,-99999.0,'11111222,11111222,99999999' 
TABS,ioos:station:wmo:42050:1,2005-06-01T23:00:00Z,28.8425,-94.2433,2.0,213.315431,8.065513003,-99999.0,'11133222,11111222,99999999' 
TABS,ioos:station:wmo:42050:1,2005-06-01T23:30:00Z,28.8425,-94.2433,2.0,183.9390792,3.347909796,-99999.0,'11133222,11111222,99999999' 
TABS,ioos:station:wmo:42050:1,2005-06-02T00:00:00Z,28.8425,-94.2433,2.0,108.6278196,0.939201789,-99999.0,'11133222,11111222,99999999' 
TABS,ioos:station:wmo:42050:1,2005-06-02T00:30:00Z,28.8425,-94.2433,2.0,31.39959452,1.804217282,-99999.0,'11133222,11111222,99999999' 
TABS,ioos:station:wmo:42050:1,2005-06-02T01:00:00Z,28.8425,-94.2433,2.0,9.811444384,1.349740716,-99999.0,'11133222,11111222,99999999' 
TABS,ioos:station:wmo:42050:1,2005-06-02T02:00:00Z,28.8425,-94.2433,2.0,249.090207,4.174937125,-99999.0,'11133222,11111222,99999999' 
TABS,ioos:station:wmo:42050:1,2005-06-02T02:30:00Z,28.8425,-94.2433,2.0,216.2535425,2.232129029,-99999.0,'11133222,11111222,99999999' 
TABS,ioos:station:wmo:42050:1,2005-06-02T03:00:00Z,28.8425,-94.2433,2.0,269.0061125,3.460520192,-99999.0,'11133222,11111222,99999999' 
TABS,ioos:station:wmo:42050:1,2005-06-02T03:30:00Z,28.8425,-94.2433,2.0,286.8461084,5.245073879,-99999.0,'11133222,11111222,99999999' 
TABS,ioos:station:wmo:42050:1,2005-06-02T04:00:00Z,28.8425,-94.2433,2.0,312.290815,6.880770306,-99999.0,'11133222,11111222,99999999' 
TABS,ioos:station:wmo:42050:1,2005-06-02T04:30:00Z,28.8425,-94.2433,2.0,321.6306471,8.63495802,-99999.0,'11133222,11111222,99999999' 
TABS,ioos:station:wmo:42050:1,2005-06-02T05:00:00Z,28.8425,-94.2433,2.0,333.6523521,9.440746792,-99999.0,'11133222,11111222,99999999' 
TABS,ioos:station:wmo:42050:1,2005-06-02T05:30:00Z,28.8425,-94.2433,2.0,1.648077164,8.693595344,-99999.0,'11133222,11111222,99999999' 
TABS,ioos:station:wmo:42050:1,2005-06-02T06:00:00Z,28.8425,-94.2433,2.0,25.26652823,8.879470705,-99999.0,'11133222,11111222,99999999' 
TABS,ioos:station:wmo:42050:1,2005-06-02T06:30:00Z,28.8425,-94.2433,2.0,38.5170467,5.01006986,-99999.0,'11133222,11111222,99999999' 
TABS,ioos:station:wmo:42050:1,2005-06-02T07:00:00Z,28.8425,-94.2433,2.0,88.91395671,6.331137339,-99999.0,'11133222,11111222,99999999' 
TABS,ioos:station:wmo:42050:1,2005-06-02T07:30:00Z,28.8425,-94.2433,2.0,110.8751246,8.615532485,-99999.0,'11133222,11111222,99999999' 
TABS,ioos:station:wmo:42050:1,2005-06-02T08:00:00Z,28.8425,-94.2433,2.0,126.9260112,4.078001962,-99999.0,'11133222,11111222,99999999' 
TABS,ioos:station:wmo:42050:1,2005-06-02T08:30:00Z,28.8425,-94.2433,2.0,112.2204852,5.077046385,-99999.0,'11133222,11111222,99999999' 
TABS,ioos:station:wmo:42050:1,2005-06-02T09:00:00Z,28.8425,-94.2433,2.0,104.8698799,3.000483294,-99999.0,'11133222,11111222,99999999' 
TABS,ioos:station:wmo:42050:1,2005-06-02T09:30:00Z,28.8425,-94.2433,2.0,85.30657684,7.454998323,-99999.0,'11133222,11111222,99999999' 
TABS,ioos:station:wmo:42050:1,2005-06-02T10:00:00Z,28.8425,-94.2433,2.0,79.54518937,8.541808942,-99999.0,'11133222,11111222,99999999' 
TABS,ioos:station:wmo:42050:1,2005-06-02T10:30:00Z,28.8425,-94.2433,2.0,89.77020586,7.48006016,-99999.0,'11133222,11111222,99999999' 
TABS,ioos:station:wmo:42050:1,2005-06-02T11:00:00Z,28.8425,-94.2433,2.0,81.32376499,12.4626161,-99999.0,'11111222,11111222,99999999' 
TABS,ioos:station:wmo:42050:1,2005-06-02T11:30:00Z,28.8425,-94.2433,2.0,90.03668095,15.6200032,-99999.0,'11111222,11111222,99999999' 
TABS,ioos:station:wmo:42050:1,2005-06-02T12:00:00Z,28.8425,-94.2433,2.0,84.46071258,15.64304957,-99999.0,'11111222,11111222,99999999' 
TABS,ioos:station:wmo:42050:1,2005-06-02T12:30:00Z,28.8425,-94.2433,2.0,95.97864748,16.80138685,-99999.0,'11111222,11111222,99999999' 
TABS,ioos:station:wmo:42050:1,2005-06-02T13:00:00Z,28.8425,-94.2433,2.0,93.00726932,16.39257454,-99999.0,'11111222,11111222,99999999' 
TABS,ioos:station:wmo:42050:1,2005-06-02T13:30:00Z,28.8425,-94.2433,2.0,90.07768896,14.75001356,-99999.0,'11111222,11111222,99999999' 
TABS,ioos:station:wmo:42050:1,2005-06-02T14:00:00Z,28.8425,-94.2433,2.0,87.73132694,15.66227634,-99999.0,'11111222,11111222,99999999' 
TABS,ioos:station:wmo:42050:1,2005-06-02T14:30:00Z,28.8425,-94.2433,2.0,81.06780559,19.9013492,-99999.0,'11111222,11111222,99999999' 
TABS,ioos:station:wmo:42050:1,2005-06-02T15:00:00Z,28.8425,-94.2433,2.0,86.03789976,24.45845662,-99999.0,'11111222,11111222,99999999' 
TABS,ioos:station:wmo:42050:1,2005-06-02T15:30:00Z,28.8425,-94.2433,2.0,96.40592656,18.28415981,-99999.0,'11111222,11111222,99999999' 
TABS,ioos:station:wmo:42050:1,2005-06-02T16:00:00Z,28.8425,-94.2433,2.0,112.1339601,18.23373248,-99999.0,'11111222,11111222,99999999' 
TABS,ioos:station:wmo:42050:1,2005-06-02T16:30:00Z,28.8425,-94.2433,2.0,104.5541066,18.78272611,-99999.0,'11111222,11111222,99999999' 
TABS,ioos:station:wmo:42050:1,2005-06-02T17:00:00Z,28.8425,-94.2433,2.0,112.1956424,18.07972621,-99999.0,'11111222,11111222,99999999' 
TABS,ioos:station:wmo:42050:1,2005-06-02T17:30:00Z,28.8425,-94.2433,2.0,126.4237422,20.29461505,-99999.0,'11111222,11111222,99999999' 
TABS,ioos:station:wmo:42050:1,2005-06-02T18:00:00Z,28.8425,-94.2433,2.0,124.8331902,18.62776691,-99999.0,'11111222,11111222,99999999' 
TABS,ioos:station:wmo:42050:1,2005-06-02T19:30:00Z,28.8425,-94.2433,2.0,134.1678588,13.63445635,-99999.0,'11111222,11111222,99999999' 
TABS,ioos:station:wmo:42050:1,2005-06-02T20:00:00Z,28.8425,-94.2433,2.0,124.6652231,24.27997117,-99999.0,'11111222,11111222,99999999' 
TABS,ioos:station:wmo:42050:1,2005-06-02T20:30:00Z,28.8425,-94.2433,2.0,121.2381067,23.27433995,-99999.0,'11111222,11111222,99999999' 
TABS,ioos:station:wmo:42050:1,2005-06-02T21:00:00Z,28.8425,-94.2433,2.0,116.3631558,20.31256754,-99999.0,'11111222,11111222,99999999' 
TABS,ioos:station:wmo:42050:1,2005-06-02T21:30:00Z,28.8425,-94.2433,2.0,115.2828066,16.78812974,-99999.0,'11111222,11111222,99999999' 
TABS,ioos:station:wmo:42050:1,2005-06-02T22:00:00Z,28.8425,-94.2433,2.0,115.0303534,15.36282526,-99999.0,'11111222,11111222,99999999' 
TABS,ioos:station:wmo:42050:1,2005-06-02T22:30:00Z,28.8425,-94.2433,2.0,111.9350129,15.12492645,-99999.0,'11111222,11111222,99999999' 
TABS,ioos:station:wmo:42050:1,2005-06-02T23:00:00Z,28.8425,-94.2433,2.0,122.7777718,8.884649684,-99999.0,'11133222,11111222,99999999' 
TABS,ioos:station:wmo:42050:1,2005-06-02T23:30:00Z,28.8425,-94.2433,2.0,154.6282871,8.588364221,-99999.0,'11133222,11111222,99999999' 
TABS,ioos:station:wmo:42050:1,2005-06-03T00:00:00Z,28.8425,-94.2433,2.0,192.344307,6.408158862,-99999.0,'11133222,11111222,99999999' 
TABS,ioos:station:wmo:42050:1,2005-06-03T00:30:00Z,28.8425,-94.2433,2.0,244.6175178,3.032754524,-99999.0,'11133222,11111222,99999999' 
TABS,ioos:station:wmo:42050:1,2005-06-03T01:00:00Z,28.8425,-94.2433,2.0,331.8658703,1.63294213,-99999.0,'11133222,11111222,99999999' 
TABS,ioos:station:wmo:42050:1,2005-06-03T01:30:00Z,28.8425,-94.2433,2.0,344.320723,4.144212832,-99999.0,'11133222,11111222,99999999' 
TABS,ioos:station:wmo:42050:1,2005-06-03T02:00:00Z,28.8425,-94.2433,2.0,329.8514486,10.73175195,-99999.0,'11111222,11111222,99999999' 
TABS,ioos:station:wmo:42050:1,2005-06-03T02:30:00Z,28.8425,-94.2433,2.0,324.9311291,15.21151209,-99999.0,'11111222,11111222,99999999' 
TABS,ioos:station:wmo:42050:1,2005-06-03T03:00:00Z,28.8425,-94.2433,2.0,329.0487481,16.07970771,-99999.0,'11111222,11111222,99999999' 
TABS,ioos:station:wmo:42050:1,2005-06-03T03:30:00Z,28.8425,-94.2433,2.0,323.344833,16.56611602,-99999.0,'11111222,11111222,99999999' 
TABS,ioos:station:wmo:42050:1,2005-06-03T04:00:00Z,28.8425,-94.2433,2.0,329.0114187,15.65439235,-99999.0,'11111222,11111222,99999999' 
TABS,ioos:station:wmo:42050:1,2005-06-03T04:30:00Z,28.8425,-94.2433,2.0,342.4910066,15.85456717,-99999.0,'11111222,11111222,99999999' 
TABS,ioos:station:wmo:42050:1,2005-06-03T05:00:00Z,28.8425,-94.2433,2.0,351.2249209,14.94494229,-99999.0,'11111222,11111222,99999999' 
TABS,ioos:station:wmo:42050:1,2005-06-03T05:30:00Z,28.8425,-94.2433,2.0,349.788342,17.09073726,-99999.0,'11111222,11111222,99999999' 
TABS,ioos:station:wmo:42050:1,2005-06-03T06:00:00Z,28.8425,-94.2433,2.0,355.8962002,17.74550366,-99999.0,'11111222,11111222,99999999' 
TABS,ioos:station:wmo:42050:1,2005-06-03T06:30:00Z,28.8425,-94.2433,2.0,353.9926388,21.11596789,-99999.0,'11111222,11111222,99999999' 
TABS,ioos:station:wmo:42050:1,2005-06-03T07:00:00Z,28.8425,-94.2433,2.0,355.5874275,21.83472693,-99999.0,'11111222,11111222,99999999' 
TABS,ioos:station:wmo:42050:1,2005-06-03T07:30:00Z,28.8425,-94.2433,2.0,20.07604829,18.99410435,-99999.0,'11111222,11111222,99999999' 
TABS,ioos:station:wmo:42050:1,2005-06-03T08:00:00Z,28.8425,-94.2433,2.0,23.66544746,19.18319316,-99999.0,'11111222,11111222,99999999' 
TABS,ioos:station:wmo:42050:1,2005-06-03T08:30:00Z,28.8425,-94.2433,2.0,31.61441587,16.61585388,-99999.0,'11111222,11111222,99999999' 
TABS,ioos:station:wmo:42050:1,2005-06-03T09:00:00Z,28.8425,-94.2433,2.0,31.8527211,16.69396598,-99999.0,'11111222,11111222,99999999' 
TABS,ioos:station:wmo:42050:1,2005-06-03T09:30:00Z,28.8425,-94.2433,2.0,32.97896619,16.53411322,-99999.0,'11111222,11111222,99999999' 
TABS,ioos:station:wmo:42050:1,2005-06-03T10:00:00Z,28.8425,-94.2433,2.0,41.10558269,15.40808229,-99999.0,'11111222,11111222,99999999' 
TABS,ioos:station:wmo:42050:1,2005-06-03T10:30:00Z,28.8425,-94.2433,2.0,49.9327779,13.73337905,-99999.0,'11111222,11111222,99999999' 
TABS,ioos:station:wmo:42050:1,2005-06-03T11:00:00Z,28.8425,-94.2433,2.0,55.87329886,14.91909515,-99999.0,'11111222,11111222,99999999' 
TABS,ioos:station:wmo:42050:1,2005-06-03T11:30:00Z,28.8425,-94.2433,2.0,61.27931467,16.16927024,-99999.0,'11111222,11111222,99999999' 
TABS,ioos:station:wmo:42050:1,2005-06-03T12:00:00Z,28.8425,-94.2433,2.0,59.39481637,18.09002488,-99999.0,'11111222,11111222,99999999' 
TABS,ioos:station:wmo:42050:1,2005-06-03T12:30:00Z,28.8425,-94.2433,2.0,55.03347929,22.16022563,-99999.0,'11111222,11111222,99999999' 
TABS,ioos:station:wmo:42050:1,2005-06-03T13:00:00Z,28.8425,-94.2433,2.0,52.97001746,25.04009784,-99999.0,'11111222,11111222,99999999' 
TABS,ioos:station:wmo:42050:1,2005-06-03T13:30:00Z,28.8425,-94.2433,2.0,53.01253854,24.35005133,-99999.0,'11111222,11111222,99999999' 
TABS,ioos:station:wmo:42050:1,2005-06-03T14:00:00Z,28.8425,-94.2433,2.0,57.77715402,27.08102103,-99999.0,'11111222,11111222,99999999' 
TABS,ioos:station:wmo:42050:1,2005-06-03T14:30:00Z,28.8425,-94.2433,2.0,67.81243024,31.40550907,-99999.0,'11111222,11111222,99999999' 
TABS,ioos:station:wmo:42050:1,2005-06-03T15:00:00Z,28.8425,-94.2433,2.0,72.19354051,34.59739875,-99999.0,'11111222,11111222,99999999' 
TABS,ioos:station:wmo:42050:1,2005-06-03T15:30:00Z,28.8425,-94.2433,2.0,76.61257662,36.84109797,-99999.0,'11111222,11111222,99999999' 
TABS,ioos:station:wmo:42050:1,2005-06-03T16:00:00Z,28.8425,-94.2433,2.0,73.67333252,37.5648253,-99999.0,'11111222,11111222,99999999' 
TABS,ioos:station:wmo:42050:1,2005-06-03T16:30:00Z,28.8425,-94.2433,2.0,79.14250366,41.7269697,-99999.0,'11111222,11111222,99999999' 
TABS,ioos:station:wmo:42050:1,2005-06-03T17:00:00Z,28.8425,-94.2433,2.0,81.20725701,42.06435308,-99999.0,'11111222,11111222,99999999' 
TABS,ioos:station:wmo:42050:1,2005-06-03T17:30:00Z,28.8425,-94.2433,2.0,83.15186978,42.35215461,-99999.0,'11111222,11111222,99999999' 
TABS,ioos:station:wmo:42050:1,2005-06-03T18:00:00Z,28.8425,-94.2433,2.0,84.94744552,43.14765811,-99999.0,'11111222,11111222,99999999' 
TABS,ioos:station:wmo:42050:1,2005-06-03T19:30:00Z,28.8425,-94.2433,2.0,102.9089257,45.12035904,-99999.0,'11111222,11111222,99999999' 
TABS,ioos:station:wmo:42050:1,2005-06-03T20:00:00Z,28.8425,-94.2433,2.0,104.0395287,41.8810518,-99999.0,'11111222,11111222,99999999' 
TABS,ioos:station:wmo:42050:1,2005-06-03T21:00:00Z,28.8425,-94.2433,2.0,123.8369499,41.0895522,-99999.0,'11111222,11111222,99999999' 
TABS,ioos:station:wmo:42050:1,2005-06-03T21:30:00Z,28.8425,-94.2433,2.0,124.6410905,38.26294421,-99999.0,'11111222,11111222,99999999' 
TABS,ioos:station:wmo:42050:1,2005-06-03T22:30:00Z,28.8425,-94.2433,2.0,140.8953332,33.80170558,-99999.0,'11111222,11111222,99999999' 
TABS,ioos:station:wmo:42050:1,2005-06-03T23:00:00Z,28.8425,-94.2433,2.0,141.675239,28.83329326,-99999.0,'11111222,11111222,99999999' 
TABS,ioos:station:wmo:42050:1,2005-06-03T23:30:00Z,28.8425,-94.2433,2.0,147.2977616,27.02346388,-99999.0,'11111222,11111222,99999999' 
TABS,ioos:station:wmo:42050:1,2005-06-04T00:00:00Z,28.8425,-94.2433,2.0,145.3811819,24.6430193,-99999.0,'11111222,11111222,99999999' 
TABS,ioos:station:wmo:42050:1,2005-06-04T00:30:00Z,28.8425,-94.2433,2.0,149.6497646,21.13669794,-99999.0,'11111222,11111222,99999999' 
TABS,ioos:station:wmo:42050:1,2005-06-04T01:00:00Z,28.8425,-94.2433,2.0,161.395621,21.40871318,-99999.0,'11111222,11111222,99999999' 
TABS,ioos:station:wmo:42050:1,2005-06-04T01:30:00Z,28.8425,-94.2433,2.0,174.9037078,18.46298188,-99999.0,'11111222,11111222,99999999' 
TABS,ioos:station:wmo:42050:1,2005-06-04T02:00:00Z,28.8425,-94.2433,2.0,183.0938404,16.30376644,-99999.0,'11111222,11111222,99999999' 
TABS,ioos:station:wmo:42050:1,2005-06-04T02:30:00Z,28.8425,-94.2433,2.0,205.8750066,12.25901301,-99999.0,'11111222,11111222,99999999' 
TABS,ioos:station:wmo:42050:1,2005-06-04T03:00:00Z,28.8425,-94.2433,2.0,240.2347596,10.6558247,-99999.0,'11111222,11111222,99999999' 
TABS,ioos:station:wmo:42050:1,2005-06-04T03:30:00Z,28.8425,-94.2433,2.0,256.9925208,13.77339464,-99999.0,'11111222,11111222,99999999' 
TABS,ioos:station:wmo:42050:1,2005-06-04T04:00:00Z,28.8425,-94.2433,2.0,287.2530327,15.1726761,-99999.0,'11111222,11111222,99999999' 
TABS,ioos:station:wmo:42050:1,2005-06-04T04:30:00Z,28.8425,-94.2433,2.0,302.6458775,16.88788027,-99999.0,'11111222,11111222,99999999' 
TABS,ioos:station:wmo:42050:1,2005-06-04T05:00:00Z,28.8425,-94.2433,2.0,313.337728,17.79122537,-99999.0,'11111222,11111222,99999999' 
TABS,ioos:station:wmo:42050:1,2005-06-04T05:30:00Z,28.8425,-94.2433,2.0,325.8235285,25.79448972,-99999.0,'11111222,11111222,99999999' 
TABS,ioos:station:wmo:42050:1,2005-06-04T06:00:00Z,28.8425,-94.2433,2.0,324.4979398,22.62644471,-99999.0,'11111222,11111222,99999999' 
TABS,ioos:station:wmo:42050:1,2005-06-04T07:00:00Z,28.8425,-94.2433,2.0,328.9606783,19.43252171,-99999.0,'11111222,11111222,99999999' 
TABS,ioos:station:wmo:42050:1,2005-06-04T07:30:00Z,28.8425,-94.2433,2.0,328.282272,19.0208412,-99999.0,'11111222,11111222,99999999' 
TABS,ioos:station:wmo:42050:1,2005-06-04T08:00:00Z,28.8425,-94.2433,2.0,336.4480019,19.99572454,-99999.0,'11111222,11111222,99999999' 
TABS,ioos:station:wmo:42050:1,2005-06-04T08:30:00Z,28.8425,-94.2433,2.0,346.7254049,20.0764464,-99999.0,'11111222,11111222,99999999' 
TABS,ioos:station:wmo:42050:1,2005-06-04T09:00:00Z,28.8425,-94.2433,2.0,353.0226083,20.24997778,-99999.0,'11111222,11111222,99999999' 
TABS,ioos:station:wmo:42050:1,2005-06-04T09:30:00Z,28.8425,-94.2433,2.0,5.31989274,23.18988141,-99999.0,'11111222,11111222,99999999' 
TABS,ioos:station:wmo:42050:1,2005-06-04T10:00:00Z,28.8425,-94.2433,2.0,10.77877432,23.47414961,-99999.0,'11111222,11111222,99999999' 
TABS,ioos:station:wmo:42050:1,2005-06-04T10:30:00Z,28.8425,-94.2433,2.0,23.38909701,22.92360356,-99999.0,'11111222,11111222,99999999' 
TABS,ioos:station:wmo:42050:1,2005-06-04T11:00:00Z,28.8425,-94.2433,2.0,33.26390018,24.22997524,-99999.0,'11111222,11111222,99999999' 
TABS,ioos:station:wmo:42050:1,2005-06-04T11:30:00Z,28.8425,-94.2433,2.0,33.88410367,23.76626601,-99999.0,'11111222,11111222,99999999' 
TABS,ioos:station:wmo:42050:1,2005-06-04T12:00:00Z,28.8425,-94.2433,2.0,42.33611822,28.4493673,-99999.0,'11111222,11111222,99999999' 
TABS,ioos:station:wmo:42050:1,2005-06-04T12:30:00Z,28.8425,-94.2433,2.0,40.80952106,27.77162041,-99999.0,'11111222,11111222,99999999' 
TABS,ioos:station:wmo:42050:1,2005-06-04T13:00:00Z,28.8425,-94.2433,2.0,48.95005387,32.1294709,-99999.0,'11111222,11111222,99999999' 
TABS,ioos:station:wmo:42050:1,2005-06-04T13:30:00Z,28.8425,-94.2433,2.0,46.61978657,28.76952728,-99999.0,'11111222,11111222,99999999' 
TABS,ioos:station:wmo:42050:1,2005-06-04T14:00:00Z,28.8425,-94.2433,2.0,52.61213963,32.29532009,-99999.0,'11111222,11111222,99999999' 
TABS,ioos:station:wmo:42050:1,2005-06-04T14:30:00Z,28.8425,-94.2433,2.0,49.96934465,35.83651908,-99999.0,'11111222,11111222,99999999' 
TABS,ioos:station:wmo:42050:1,2005-06-04T15:00:00Z,28.8425,-94.2433,2.0,53.7606353,38.53433274,-99999.0,'11111222,11111222,99999999' 
TABS,ioos:station:wmo:42050:1,2005-06-04T15:30:00Z,28.8425,-94.2433,2.0,58.69398824,40.4726735,-99999.0,'11111222,11111222,99999999' 
TABS,ioos:station:wmo:42050:1,2005-06-04T16:00:00Z,28.8425,-94.2433,2.0,58.80881085,41.03135996,-99999.0,'11111222,11111222,99999999' 
TABS,ioos:station:wmo:42050:1,2005-06-04T16:30:00Z,28.8425,-94.2433,2.0,68.0459719,38.32951082,-99999.0,'11111222,11111222,99999999' 
TABS,ioos:station:wmo:42050:1,2005-06-04T17:00:00Z,28.8425,-94.2433,2.0,74.74357178,37.35653223,-99999.0,'11111222,11111222,99999999' 
TABS,ioos:station:wmo:42050:1,2005-06-04T17:30:00Z,28.8425,-94.2433,2.0,77.06718386,34.76180087,-99999.0,'11111222,11111222,99999999' 
TABS,ioos:station:wmo:42050:1,2005-06-04T18:30:00Z,28.8425,-94.2433,2.0,84.65731953,33.93743803,-99999.0,'11111222,11111222,99999999' 
TABS,ioos:station:wmo:42050:1,2005-06-04T19:00:00Z,28.8425,-94.2433,2.0,89.29588457,30.92233497,-99999.0,'11111222,11111222,99999999' 
TABS,ioos:station:wmo:42050:1,2005-06-04T19:30:00Z,28.8425,-94.2433,2.0,99.36332743,29.50308628,-99999.0,'11111222,11111222,99999999' 
TABS,ioos:station:wmo:42050:1,2005-06-04T20:00:00Z,28.8425,-94.2433,2.0,105.6644999,29.70320521,-99999.0,'11111222,11111222,99999999' 
TABS,ioos:station:wmo:42050:1,2005-06-04T21:00:00Z,28.8425,-94.2433,2.0,121.1323242,27.96811041,-99999.0,'11111222,11111222,99999999' 
TABS,ioos:station:wmo:42050:1,2005-06-04T21:30:00Z,28.8425,-94.2433,2.0,123.1112645,28.55742285,-99999.0,'11111222,11111222,99999999' 
TABS,ioos:station:wmo:42050:1,2005-06-04T22:00:00Z,28.8425,-94.2433,2.0,130.8349481,27.65018626,-99999.0,'11111222,11111222,99999999' 
TABS,ioos:station:wmo:42050:1,2005-06-04T22:30:00Z,28.8425,-94.2433,2.0,139.2865551,24.40689247,-99999.0,'11111222,11111222,99999999' 